Weather History for Greenwood, MS

Change the Weather History Date:

Saturday, October 22, 2011

  Actual Average Record
Temperature  
Mean Temperature 56 °F 62 °F  
Max Temperature 77 °F 75 °F 87 °F (1953)
Min Temperature 34 °F 50 °F 29 °F (1952)
Degree Days  
Heating Degree Days 9 5  
Month to date heating degree days 96 65  
Since 1 July heating degree days 109 77  
Cooling Degree Days 0 2  
Month to date cooling degree days 48 79  
Year to date cooling degree days 2292 2126  
Growing Degree Days 7 (Base 50)    
Moisture  
Dew Point 40 °F    
Average Humidity 60    
Maximum Humidity 92    
Minimum Humidity 27    
Precipitation  
Precipitation 0.00 in 0.13 in 3.63 in (1984)
Month to date precipitation 0.54 2.77  
Year to date precipitation 27.58 40.50  
Sea Level Pressure  
Sea Level Pressure 30.14 in    
Wind  
Wind Speed 3 mph (NE)    
Max Wind Speed 9 mph    
Max Gust Speed 12 mph    
Visibility 10 miles    
Events      
T = Trace of Precipitation, MM = Missing Value Source: NWS Daily Summary

Daily Weather History Graph

Daily Weather History Graph

Search for Another Location

Airport:

Trip Planner

Search our weather history database for the weather conditions in past years. The results will help you decide how hot, cold, wet, or windy it might be!

Date:

Astronomy

Oct. 22, 2011 Rise Set
Actual Time 7:10 AM CDT 6:18 PM CDT
Civil Twilight 6:45 AM CDT 6:44 PM CDT
Nautical Twilight 6:16 AM CDT 7:13 PM CDT
Astronomical Twilight 5:47 AM CDT 7:41 PM CDT
Moon 2:21 AM CDT (10/22) 3:24 PM CDT (10/22)
Length of Visible Light 11h 58m
Length of Day
11h 08m
Waning Crescent, 23% of the Moon is Illuminated
Oct 22
Waning Crescent
Oct 26
New
Nov 2
First Quarter
Nov 10
Full
Nov 18
Last Quarter

Hourly Weather History & Observations

Time (CDT) Temp. Windchill Dew Point Humidity Pressure Visibility Wind Dir Wind Speed Gust Speed Precip Events Conditions
12:53 AM 37.9 °F - 35.1 °F 89% 30.18 in 10.0 mi Calm Calm - N/A   Clear
1:53 AM 37.0 °F 33.3 °F 35.1 °F 93% 30.17 in 10.0 mi ENE 4.6 mph - N/A   Clear
2:53 AM 37.9 °F 34.4 °F 36.0 °F 93% 30.16 in 10.0 mi NE 4.6 mph - N/A   Clear
3:53 AM 37.0 °F - 35.1 °F 93% 30.17 in 10.0 mi Calm Calm - N/A   Clear
4:53 AM 37.9 °F 34.4 °F 35.1 °F 89% 30.18 in 10.0 mi NE 4.6 mph - N/A   Clear
5:53 AM 39.9 °F 37.8 °F 36.0 °F 86% 30.20 in 10.0 mi WNW 3.5 mph - N/A   Clear
6:53 AM 37.0 °F 34.5 °F 35.1 °F 93% 30.21 in 10.0 mi ENE 3.5 mph - N/A   Clear
7:53 AM 41.0 °F 39.0 °F 37.0 °F 86% 30.22 in 10.0 mi NE 3.5 mph - N/A   Clear
8:53 AM 52.0 °F - 39.9 °F 63% 30.22 in 10.0 mi Calm Calm - N/A   Clear
9:53 AM 61.0 °F - 41.0 °F 48% 30.21 in 10.0 mi East 4.6 mph - N/A   Clear
10:53 AM 68.0 °F - 39.0 °F 35% 30.19 in 10.0 mi East 6.9 mph - N/A   Clear
11:53 AM 71.1 °F - 39.0 °F 31% 30.17 in 10.0 mi Variable 4.6 mph - N/A   Clear
12:53 PM 73.0 °F - 39.0 °F 29% 30.14 in 10.0 mi SSE 5.8 mph - N/A   Clear
1:53 PM 75.0 °F - 39.0 °F 27% 30.11 in 10.0 mi Calm Calm - N/A   Clear
2:53 PM 75.0 °F - 39.9 °F 28% 30.09 in 10.0 mi WSW 3.5 mph - N/A   Clear
3:53 PM 77.0 °F - 41.0 °F 28% 30.08 in 10.0 mi NE 4.6 mph - N/A   Clear
4:53 PM 75.0 °F - 41.0 °F 29% 30.08 in 10.0 mi Calm Calm - N/A   Clear
5:53 PM 70.0 °F - 45.0 °F 41% 30.08 in 10.0 mi Calm Calm - N/A   Clear
6:53 PM 61.0 °F - 46.9 °F 60% 30.08 in 10.0 mi NE 3.5 mph - N/A   Clear
7:53 PM 57.0 °F - 46.9 °F 69% 30.08 in 10.0 mi Calm Calm - N/A   Clear
8:53 PM 52.0 °F - 46.9 °F 83% 30.08 in 10.0 mi Calm Calm - N/A   Clear
9:53 PM 54.0 °F - 46.0 °F 75% 30.08 in 10.0 mi NNE 3.5 mph - N/A   Clear
10:53 PM 53.1 °F - 45.0 °F 74% 30.08 in 10.0 mi Calm Calm - N/A   Clear
11:53 PM 52.0 °F - 43.0 °F 71% 30.07 in 10.0 mi Calm Calm - N/A   Clear